Location: Makanda
(37.6176°N, 89.2090°W)
Time: 00:50:12
(UTC+00:00)

Cosmos 2084 Rocket - Pass Details

Date: 23 September 2019
Orbit: 571 x 610 km, 62.8° (Epoch: 13 October)

Event Time Altitude Azimuth Distance (km) Brightness Sun altitude
Exits shadow 10:22:31 27° 219° (SW) 1,147 4.5 -17.1°
Drops below altitude 10° 10:25:18 10° 183° (S) 1,905 5.9 -16.5°
Sets 10:27:43 0° 173° (S) 2,793 6.9 -16.1°
